RYR150 LKPR-EPMO

Flight info

Callsign RYR150
Flight time 1h 0m
Altitude 35000
Route ARTUP DCT LAGAR N871 OKENO Q277 GOGUS
Aircraft B738/M-SDE2E3FGHIRWXY/LB1

Departure

Time 2026-04-30 18:47
Airport Václav Havel Airport Prague (LKPR)

Arrival

Time 2026-04-30 19:48
Airport Warsaw Modlin Airport (EPMO)
Time Latitude Longitude Altitude Speed Heading
2026-04-30 18:26 50.10570 14.26351 1173 ft 0 kts 34°
2026-04-30 18:39 50.10560 14.26341 1171 ft 2 kts 32°
2026-04-30 18:39 50.10546 14.26328 1171 ft 2 kts 28°
2026-04-30 18:39 50.10536 14.26320 1171 ft 2 kts 24°
2026-04-30 18:39 50.10520 14.26311 1170 ft 2 kts
2026-04-30 18:40 50.10501 14.26323 1170 ft 2 kts 307°
2026-04-30 18:40 50.10499 14.26328 1170 ft 0 kts 304°
2026-04-30 18:42 50.10506 14.26311 1170 ft 7 kts 304°
2026-04-30 18:42 50.10540 14.26200 1175 ft 16 kts 282°
2026-04-30 18:45 50.09593 14.27713 1173 ft 19 kts 134°
2026-04-30 18:45 50.09494 14.27864 1173 ft 21 kts 136°
2026-04-30 18:45 50.09389 14.28025 1175 ft 22 kts 135°
2026-04-30 18:46 50.09288 14.28179 1175 ft 21 kts 135°
2026-04-30 18:46 50.09163 14.28278 1174 ft 22 kts 196°
2026-04-30 18:46 50.09100 14.28081 1175 ft 23 kts 282°
2026-04-30 18:46 50.09194 14.27857 1174 ft 32 kts 307°
2026-04-30 18:47 50.09474 14.27280 1174 ft 103 kts 307°
2026-04-30 18:47 50.10038 14.26120 1190 ft 161 kts 309°
2026-04-30 18:47 50.10774 14.24672 1785 ft 171 kts 311°
2026-04-30 18:47 50.11494 14.23224 2755 ft 168 kts 311°
2026-04-30 18:48 50.12196 14.21763 3548 ft 167 kts 310°
2026-04-30 18:48 50.12883 14.20304 4299 ft 167 kts 310°
2026-04-30 18:48 50.13580 14.18829 4903 ft 170 kts 309°
2026-04-30 18:48 50.14342 14.17229 5029 ft 202 kts 309°
2026-04-30 18:49 50.15248 14.15338 5047 ft 233 kts 309°
2026-04-30 18:49 50.16255 14.13229 5019 ft 246 kts 309°
2026-04-30 18:49 50.17283 14.11076 5001 ft 248 kts 309°
2026-04-30 18:49 50.18315 14.08922 4990 ft 247 kts 309°
2026-04-30 18:50 50.19342 14.06781 4997 ft 246 kts 309°
2026-04-30 18:50 50.20380 14.04703 4992 ft 245 kts 317°
2026-04-30 18:50 50.21859 14.03552 5004 ft 236 kts 356°
2026-04-30 18:50 50.23450 14.03957 5169 ft 234 kts 25°
2026-04-30 18:51 50.24791 14.05393 5718 ft 235 kts 47°
2026-04-30 18:51 50.25794 14.07386 6358 ft 233 kts 56°
2026-04-30 18:51 50.26692 14.09481 6906 ft 236 kts 57°
2026-04-30 18:51 50.27604 14.11673 7438 ft 239 kts 57°
2026-04-30 18:52 50.28509 14.13852 7831 ft 250 kts 57°
2026-04-30 18:52 50.29487 14.16196 8277 ft 262 kts 57°
2026-04-30 18:52 50.30490 14.18591 9104 ft 263 kts 57°
2026-04-30 18:52 50.31494 14.20981 9997 ft 263 kts 56°
2026-04-30 18:53 50.32505 14.23384 10717 ft 268 kts 56°
2026-04-30 18:53 50.33579 14.25929 10932 ft 292 kts 56°
2026-04-30 18:53 50.34739 14.28677 11126 ft 314 kts 56°
2026-04-30 18:53 50.35973 14.31599 11567 ft 325 kts 56°
2026-04-30 18:54 50.37228 14.34574 12282 ft 329 kts 56°
2026-04-30 18:54 50.38480 14.37544 13064 ft 331 kts 56°
2026-04-30 18:54 50.39752 14.40565 13840 ft 334 kts 56°
2026-04-30 18:54 50.41040 14.43625 14571 ft 337 kts 55°
2026-04-30 18:55 50.42334 14.46702 15327 ft 339 kts 55°
2026-04-30 18:55 50.44947 14.52924 16372 ft 342 kts 55°
2026-04-30 18:55 50.46263 14.56064 16403 ft 344 kts 55°
2026-04-30 18:56 50.48888 14.62338 16427 ft 344 kts 55°
2026-04-30 18:56 50.50211 14.65505 16754 ft 350 kts 55°
2026-04-30 18:56 50.51543 14.68698 17637 ft 348 kts 55°
2026-04-30 18:57 50.54191 14.75058 19156 ft 350 kts 55°
2026-04-30 18:57 50.55529 14.78278 19793 ft 352 kts 55°
2026-04-30 18:57 50.56855 14.81472 20444 ft 353 kts 55°
2026-04-30 18:58 50.59551 14.87979 21744 ft 356 kts 55°
2026-04-30 18:58 50.60909 14.91261 22349 ft 358 kts 55°
2026-04-30 18:58 50.62270 14.94558 22964 ft 360 kts 55°
2026-04-30 18:59 50.65009 15.01199 24146 ft 363 kts 54°
2026-04-30 19:00 50.69163 15.11310 25572 ft 368 kts 54°
2026-04-30 19:00 50.70558 15.14713 26021 ft 370 kts 54°
2026-04-30 19:00 50.73361 15.21565 26948 ft 372 kts 54°
2026-04-30 19:01 50.76173 15.28456 27814 ft 375 kts 55°
2026-04-30 19:01 50.77594 15.31945 28138 ft 379 kts 55°
2026-04-30 19:02 50.80199 15.39111 29249 ft 377 kts 63°
2026-04-30 19:02 50.82136 15.46727 30497 ft 371 kts 64°
2026-04-30 19:03 50.84052 15.54288 31323 ft 370 kts 64°
2026-04-30 19:03 50.85970 15.61826 32175 ft 368 kts 63°
2026-04-30 19:04 50.87876 15.69317 32974 ft 366 kts 63°
2026-04-30 19:04 50.89770 15.76780 33748 ft 365 kts 63°
2026-04-30 19:05 50.91652 15.84220 34496 ft 363 kts 63°
2026-04-30 19:05 50.93536 15.91688 34965 ft 366 kts 63°
2026-04-30 19:06 50.95429 15.99220 35384 ft 367 kts 63°
2026-04-30 19:06 50.98263 16.10546 35428 ft 368 kts 64°
2026-04-30 19:07 51.01085 16.21873 35426 ft 370 kts 64°
2026-04-30 19:08 51.04854 16.37093 35429 ft 370 kts 64°
2026-04-30 19:09 51.07663 16.48508 35415 ft 369 kts 64°
2026-04-30 19:09 51.09527 16.56114 35409 ft 368 kts 64°
2026-04-30 19:10 51.13220 16.71259 35405 ft 366 kts 64°
2026-04-30 19:11 51.15954 16.82537 35402 ft 365 kts 64°
2026-04-30 19:12 51.17773 16.90073 35402 ft 364 kts 64°
2026-04-30 19:12 51.19587 16.97617 35405 ft 364 kts 64°
2026-04-30 19:13 51.23186 17.12678 35393 ft 364 kts 64°
2026-04-30 19:14 51.24982 17.20190 35402 ft 362 kts 62°
2026-04-30 19:14 51.27502 17.27050 35405 ft 357 kts 53°
2026-04-30 19:15 51.30246 17.33689 35410 ft 358 kts 53°
2026-04-30 19:15 51.34341 17.43701 35408 ft 359 kts 53°
2026-04-30 19:16 51.37066 17.50404 35404 ft 360 kts 53°
2026-04-30 19:17 51.41146 17.60484 35399 ft 361 kts 54°
2026-04-30 19:17 51.45166 17.70464 35333 ft 342 kts 53°
2026-04-30 19:18 51.47275 17.75715 34855 ft 331 kts 53°
2026-04-30 19:18 51.48929 17.79838 34425 ft 325 kts 53°
2026-04-30 19:18 51.50149 17.82881 34019 ft 322 kts 53°
2026-04-30 19:19 51.51337 17.85848 33591 ft 320 kts 53°
2026-04-30 19:19 51.51690 17.86730 33457 ft 319 kts 53°
2026-04-30 19:19 51.53144 17.90368 32934 ft 317 kts 53°
2026-04-30 19:20 51.54327 17.93333 32544 ft 314 kts 53°
2026-04-30 19:20 51.55501 17.96276 32167 ft 311 kts 53°
2026-04-30 19:20 51.57818 18.02097 31398 ft 307 kts 54°
2026-04-30 19:21 51.58962 18.04978 31033 ft 304 kts 54°
2026-04-30 19:21 51.61225 18.10683 30279 ft 300 kts 54°
2026-04-30 19:22 51.63435 18.16271 29383 ft 296 kts 54°
2026-04-30 19:22 51.66741 18.24645 28001 ft 293 kts 54°
2026-04-30 19:23 51.70000 18.32931 26735 ft 290 kts 53°
2026-04-30 19:24 51.72151 18.38415 25914 ft 288 kts 53°
2026-04-30 19:24 51.73221 18.41148 25526 ft 288 kts 53°
2026-04-30 19:24 51.75351 18.46595 24761 ft 286 kts 53°
2026-04-30 19:25 51.78514 18.54704 23572 ft 284 kts 53°
2026-04-30 19:26 51.80617 18.60112 22719 ft 283 kts 53°
2026-04-30 19:26 51.82703 18.65484 21897 ft 282 kts 54°
2026-04-30 19:26 51.83746 18.68178 21503 ft 281 kts 54°
2026-04-30 19:27 51.85468 18.72627 20851 ft 281 kts 54°
2026-04-30 19:27 51.87543 18.77997 20100 ft 280 kts 54°
2026-04-30 19:28 51.88571 18.80665 19786 ft 277 kts 54°
2026-04-30 19:28 51.90591 18.85913 19226 ft 272 kts 54°
2026-04-30 19:29 51.92575 18.91078 18659 ft 268 kts 55°
2026-04-30 19:29 51.93557 18.93637 18360 ft 265 kts 54°
2026-04-30 19:30 51.96409 19.01088 17554 ft 256 kts 55°
2026-04-30 19:30 51.98303 19.06043 16998 ft 262 kts 55°
2026-04-30 19:31 52.00281 19.11223 16447 ft 273 kts 55°
2026-04-30 19:31 52.01277 19.13839 16155 ft 270 kts 55°
2026-04-30 19:31 52.03228 19.18980 15592 ft 265 kts 55°
2026-04-30 19:32 52.04195 19.21528 15311 ft 263 kts 55°
2026-04-30 19:32 52.05146 19.24039 15030 ft 261 kts 55°
2026-04-30 19:32 52.06095 19.26546 14757 ft 259 kts 55°
2026-04-30 19:32 52.07038 19.29037 14477 ft 257 kts 55°
2026-04-30 19:33 52.07971 19.31507 14197 ft 256 kts 55°
2026-04-30 19:33 52.08887 19.33933 13926 ft 254 kts 55°
2026-04-30 19:33 52.09819 19.36402 13647 ft 251 kts 55°
2026-04-30 19:33 52.10691 19.38716 13386 ft 249 kts 55°
2026-04-30 19:34 52.11605 19.41146 13133 ft 247 kts 55°
2026-04-30 19:34 52.12511 19.43551 12875 ft 250 kts 55°
2026-04-30 19:34 52.14367 19.48483 12318 ft 262 kts 55°
2026-04-30 19:35 52.15323 19.51031 12011 ft 263 kts 55°
2026-04-30 19:35 52.16270 19.53561 11734 ft 261 kts 55°
2026-04-30 19:35 52.17212 19.56080 11460 ft 259 kts 55°
2026-04-30 19:35 52.18145 19.58577 11177 ft 257 kts 55°
2026-04-30 19:36 52.19071 19.61058 10905 ft 255 kts 55°
2026-04-30 19:36 52.19992 19.63523 10632 ft 254 kts 55°
2026-04-30 19:36 52.21824 19.68440 10408 ft 256 kts 55°
2026-04-30 19:37 52.22751 19.70927 10384 ft 254 kts 55°
2026-04-30 19:37 52.23668 19.73392 9827 ft 262 kts 55°
2026-04-30 19:37 52.24624 19.75966 9463 ft 262 kts 55°
2026-04-30 19:37 52.25552 19.78468 9176 ft 260 kts 55°
2026-04-30 19:38 52.26483 19.80982 8888 ft 257 kts 55°
2026-04-30 19:38 52.27404 19.83472 8623 ft 255 kts 55°
2026-04-30 19:38 52.28315 19.85936 8351 ft 253 kts 55°
2026-04-30 19:38 52.29236 19.88423 7818 ft 261 kts 55°
2026-04-30 19:39 52.30176 19.90967 7475 ft 261 kts 55°
2026-04-30 19:39 52.31112 19.93506 7182 ft 260 kts 55°
2026-04-30 19:39 52.32029 19.95996 6899 ft 258 kts 55°
2026-04-30 19:39 52.32952 19.98505 6613 ft 256 kts 55°
2026-04-30 19:40 52.33870 20.01002 6327 ft 255 kts 55°
2026-04-30 19:40 52.34778 20.03474 6044 ft 253 kts 55°
2026-04-30 19:40 52.35681 20.05936 5768 ft 251 kts 55°
2026-04-30 19:40 52.36580 20.08385 5488 ft 250 kts 55°
2026-04-30 19:41 52.37469 20.10811 5219 ft 248 kts 55°
2026-04-30 19:41 52.38344 20.13204 5101 ft 240 kts 55°
2026-04-30 19:41 52.39189 20.15517 4987 ft 233 kts 55°
2026-04-30 19:41 52.39998 20.17734 4872 ft 226 kts 55°
2026-04-30 19:42 52.40749 20.19981 4758 ft 221 kts 67°
2026-04-30 19:42 52.41032 20.22408 4775 ft 220 kts 77°
2026-04-30 19:42 52.41263 20.24890 4527 ft 221 kts 76°
2026-04-30 19:42 52.41503 20.27363 4302 ft 219 kts 76°
2026-04-30 19:43 52.41743 20.29814 4071 ft 217 kts 77°
2026-04-30 19:43 52.41980 20.32248 3846 ft 215 kts 77°
2026-04-30 19:43 52.42210 20.34638 3643 ft 209 kts 77°
2026-04-30 19:44 52.42649 20.39193 3189 ft 196 kts 78°
2026-04-30 19:44 52.42887 20.41331 3050 ft 184 kts 76°
2026-04-30 19:44 52.43108 20.43350 2843 ft 174 kts 77°
2026-04-30 19:44 52.43292 20.45286 2628 ft 174 kts 78°
2026-04-30 19:45 52.43470 20.47228 2382 ft 165 kts 79°
2026-04-30 19:45 52.43631 20.49000 2188 ft 156 kts 79°
2026-04-30 19:45 52.43792 20.50753 1955 ft 153 kts 79°
2026-04-30 19:45 52.43950 20.52473 1748 ft 153 kts 79°
2026-04-30 19:46 52.44110 20.54208 1531 ft 153 kts 79°
2026-04-30 19:46 52.44268 20.55935 1320 ft 153 kts 80°
2026-04-30 19:46 52.44427 20.57648 1091 ft 149 kts 81°
2026-04-30 19:46 52.44577 20.59299 882 ft 144 kts 83°
2026-04-30 19:47 52.44725 20.60907 663 ft 142 kts 82°
2026-04-30 19:47 52.44824 20.61960 550 ft 139 kts 83°
2026-04-30 19:47 52.45007 20.64032 339 ft 133 kts 84°
2026-04-30 19:47 52.45122 20.65180 338 ft 71 kts 81°
2026-04-30 19:48 52.45178 20.65790 339 ft 46 kts 81°
2026-04-30 19:48 52.45139 20.66002 337 ft 12 kts 160°
2026-04-30 19:48 52.45061 20.66049 336 ft 12 kts 160°
2026-04-30 19:48 52.44985 20.66094 336 ft 11 kts 160°
2026-04-30 19:49 52.44957 20.66110 335 ft 0 kts 160°
2026-04-30 19:49 52.44956 20.66111 335 ft 1 kts 160°
2026-04-30 19:50 52.44942 20.66119 337 ft 4 kts 160°
2026-04-30 19:50 52.44892 20.66121 336 ft 10 kts 205°
2026-04-30 19:50 52.44858 20.65987 337 ft 16 kts 261°
2026-04-30 19:50 52.44837 20.65770 333 ft 22 kts 261°
2026-04-30 19:51 52.44814 20.65507 337 ft 25 kts 262°
2026-04-30 19:51 52.44773 20.65355 337 ft 9 kts 208°
2026-04-30 19:51 52.44748 20.65335 335 ft 0 kts 206°